Terminal Aerodrome Forecast
Issued by NWS Pittsburgh, PA

Current Version | Previous Version | Graphics & Text | Print | Product List | Glossary On
Versions: 1 2 3 4 5 6 7 8 9 10 11 12 13 14 15 16 17 18 19 20 21 22 23 24 25 26 27
364
FTUS41 KPBZ 200856 AAB
TAFPIT
TAF AMD
KPIT 200856Z 2009/2112 31008KT P6SM SCT025 OVC035
      TEMPO 2009/2010 BKN025
     FM201400 32010KT P6SM BKN150=

USA.gov is the U.S. government's official web portal to all federal, state and local government web resources and services.